[[{"header":{"parameterUnit":"m.s-1","parameterCategory":2,"la1":30.2992,"la2":30.254,"lo1":-89.0895,"lo2":-89.0443,"dy":0.0025,"dx":0.0025,"nx":19,"ny":19,"refTime":"2026-04-21T09:00:00:Z","depth":"0","parameterNumber":2,"parameterNumberName":"U-component_of_CURRENTS"},"data":[0,0,0,0.3907,0.3909,0.3978,0.3979,0.4158,0.4159,0,0,0,0,0,0,0,0,0,0,0,0.3875,0.3875,0.3907,0.3909,0.3978,0.3979,0.4157,0.4159,0,0,0,0,0,0,0,0,0,0,0,0.3875,0.3875,0.3876,0.3909,0.3978,0.3979,0.4157,0.4082,0,0,0,0,0,0,0,0,0,0,0.4003,0.3958,0.3875,0.3876,0.3909,0.3978,0.3979,0.4077,0.4087,0.4152,0,0.4156,0,0.4169,0.4173,0.4174,0,0,0,0.3908,0.395,0.3974,0.3876,0.391,0.3978,0.3947,0.4082,0.4092,0.4164,0.4159,0.4165,0.4172,0.4175,0.4176,0.4516,0.4518,0,0,0.3904,0.3889,0.3966,0.398,0.3924,0.3945,0.3949,0.4087,0.4096,0.4159,0.4169,0.4175,0.4176,0.4178,0.4514,0.4517,0,0,0,0.3894,0.3886,0.3905,0.3973,0.3983,0.3947,0.3952,0.4089,0.4097,0.4171,0.4177,0.4177,0.418,0.4512,0.4515,0.4582,0,0,0,0.3891,0.388,0.3903,0.3894,0.3979,0.4025,0.3951,0.4086,0.4102,0.4176,0.4177,0.4182,0.4509,0.4513,0.4575,0.4664,0,0,0,0.3873,0.3879,0.3885,0.3893,0.3925,0.4022,0.4037,0.4089,0.4108,0.4174,0.4183,0.4508,0.4513,0.4569,0.4652,0.4704,0,0,0,0.3857,0.3876,0.3884,0.3932,0.3924,0.4051,0.4036,0.4123,0.4184,0.4178,0.451,0.4515,0.4567,0.4645,0.4698,0.4635,0.466,0,0,0.3875,0.3878,0.3914,0.3924,0.4047,0.4041,0.4202,0.4255,0.4294,0.4464,0.4472,0.4578,0.4652,0.4703,0.4932,0.4947,0,0,0,0.3919,0.3945,0.3985,0.4058,0.4142,0.4262,0.4306,0.4377,0.4532,0.4355,0.4664,0.4712,0.4739,0.4691,0.4706,0.4471,0.4538,0.4538,0.4537,0.3922,0.3991,0.4082,0.4185,0.4285,0.4429,0.4558,0.4683,0.4648,0.4758,0.4827,0.5009,0.4962,0.4971,0.4732,0.4867,0.4867,0.4867,0.4868,0.3971,0.4032,0.4159,0.4261,0.4421,0.4571,0.4823,0.4857,0.5082,0.5018,0.5036,0.4843,0.499,0.473,0.4873,0.4872,0.4872,0.4871,0.4871,0.3965,0.4009,0.4073,0.4257,0.4465,0.4653,0.4897,0.5063,0.518,0.5272,0.5148,0.5145,0.4859,0.5217,0.5218,0.5219,0.5219,0.522,0.522,0.3916,0.3996,0.4076,0.4267,0.439,0.4613,0.4943,0.5103,0.5251,0.5294,0.5291,0.4928,0.5116,0.5036,0.5231,0.5229,0.5227,0.5226,0.5226,0.3915,0.3941,0.4055,0.415,0.4396,0.4509,0.4823,0.5077,0.525,0.5302,0.504,0.5296,0.5272,0.5259,0.5185,0.5408,0.5408,0.5408,0.5408,0.39,0.3931,0.4039,0.4146,0.4309,0.4459,0.4548,0.4778,0.4952,0.4948,0.4984,0.4833,0.4836,0.4776,0.4774,0.4687,0.4778,0.4777,0.4776,0.3917,0.3956,0.4006,0.4101,0.4252,0.4342,0.43,0.4251,0.451,0.4727,0.4676,0.4703,0.4453,0.4477,0.4356,0.4372,0.4221,0,0]},{"header":{"parameterUnit":"m.s-1","parameterCategory":2,"la1":30.2992,"la2":30.254,"lo1":-89.0895,"lo2":-89.0443,"dy":0.0025,"dx":0.0025,"nx":19,"ny":19,"refTime":"2026-04-21T09:00:00:Z","depth":"0","parameterNumber":3,"parameterNumberName":"V-component_of_CURRENTS"},"data":[0,0,0,0.0241,0.0241,0.0194,0.0194,0.0089,0.0088,0,0,0,0,0,0,0,0,0,0,0,0.0255,0.0255,0.0242,0.0241,0.0194,0.0194,0.0089,0.0088,0,0,0,0,0,0,0,0,0,0,0,0.0255,0.0255,0.0255,0.0241,0.0194,0.0194,0.0089,0.0132,0,0,0,0,0,0,0,0,0,0,0.0182,0.0207,0.0255,0.0255,0.0241,0.0194,0.0193,0.0135,0.013,0.0102,0,0.0104,0,0.01,0.0082,0.0081,0,0,0,0.0226,0.0211,0.0202,0.0255,0.024,0.0194,0.0211,0.0132,0.0126,0.0095,0.0103,0.0099,0.0099,0.0081,0.008,0.0063,0.0064,0,0,0.0228,0.0239,0.0206,0.0198,0.0239,0.0213,0.021,0.0129,0.0125,0.0103,0.0097,0.0097,0.008,0.0079,0.0063,0.0063,0,0,0,0.0246,0.0241,0.0234,0.0202,0.0201,0.0212,0.0208,0.0128,0.0127,0.0096,0.0096,0.008,0.0078,0.0062,0.0063,0.024,0,0,0,0.0247,0.0252,0.0235,0.024,0.0203,0.017,0.0209,0.0132,0.0123,0.0096,0.008,0.0078,0.0061,0.0062,0.0234,0.04,0,0,0,0.0256,0.0253,0.0252,0.0241,0.0228,0.0172,0.0165,0.013,0.0123,0.0081,0.0077,0.0061,0.0062,0.0229,0.0387,0.0514,0,0,0,0.0261,0.0289,0.0252,0.028,0.0229,0.0248,0.0166,0.0153,0.0126,0.0079,0.0061,0.0063,0.0227,0.0379,0.0506,0.0746,0.0805,0,0,0.0307,0.0294,0.0313,0.028,0.0332,0.0252,0.0304,0.0221,0.0134,0.008,0.008,0.0236,0.0386,0.0512,0.0821,0.0879,0,0,0,0.0334,0.0359,0.0364,0.0381,0.0368,0.0402,0.0313,0.0291,0.0251,0.0126,0.0213,0.0303,0.0377,0.0502,0.0547,0.0274,0.0069,0.0069,0.0069,0.042,0.0421,0.0478,0.049,0.0507,0.0492,0.0529,0.048,0.0343,0.0358,0.0426,0.0628,0.076,0.0797,0.0509,0.0354,0.0355,0.0355,0.0355,0.0535,0.0581,0.059,0.0652,0.0672,0.0717,0.0739,0.069,0.0757,0.059,0.0648,0.0658,0.0858,0.0532,0.0366,0.0365,0.0363,0.0362,0.0361,0.0607,0.0638,0.0665,0.078,0.0882,0.0904,0.1114,0.1065,0.097,0.1048,0.1127,0.1125,0.0863,0.1031,0.1033,0.1034,0.1035,0.1036,0.1037,0.0681,0.0713,0.0828,0.094,0.1049,0.1223,0.1365,0.148,0.152,0.1415,0.1414,0.0921,0.0835,0.0835,0.1057,0.1053,0.1051,0.1049,0.1047,0.0808,0.082,0.1006,0.1122,0.1398,0.1688,0.1797,0.2079,0.2112,0.2178,0.1511,0.1595,0.1582,0.1544,0.156,0.1957,0.1957,0.1957,0.1957,0.09,0.0916,0.118,0.1399,0.1685,0.1908,0.2417,0.2594,0.2273,0.2,0.1721,0.1541,0.1516,0.1481,0.1445,0.1449,0.1808,0.1807,0.1806,0.1021,0.108,0.1289,0.1482,0.1805,0.2183,0.2698,0.2941,0.2317,0.1753,0.1292,0.1299,0.0967,0.0951,0.0829,0.0801,0.0783,0,0]}],[{"header":{"parameterUnit":"m.s-1","parameterCategory":2,"la1":30.2992,"la2":30.254,"lo1":-89.0895,"lo2":-89.0443,"dy":0.0025,"dx":0.0025,"nx":19,"ny":19,"refTime":"2026-04-21T09:00:00:Z","depth":"2","parameterNumber":2,"parameterNumberName":"U-component_of_CURRENTS"},"data":[0,0,0,0.3208,0.321,0.3285,0.3285,0.3431,0.3433,0,0,0,0,0,0,0,0,0,0,0,0.3179,0.318,0.3208,0.321,0.3285,0.3285,0.3431,0.3433,0,0,0,0,0,0,0,0,0,0,0,0.3179,0.318,0.3181,0.321,0.3285,0.3285,0.343,0.3359,0,0,0,0,0,0,0,0,0,0,0.3278,0.325,0.318,0.3181,0.3211,0.3285,0.3285,0.3355,0.3363,0.3414,0,0.3434,0,0.3446,0.3444,0.3445,0,0,0,0.3199,0.3242,0.3266,0.3181,0.3212,0.3285,0.3248,0.3359,0.3369,0.3426,0.3436,0.3441,0.3448,0.3446,0.3447,0.3664,0.3665,0,0,0.3195,0.3191,0.3259,0.3272,0.3244,0.3246,0.3251,0.3364,0.338,0.3436,0.3444,0.345,0.3447,0.3448,0.3663,0.3664,0,0,0,0.319,0.3189,0.3207,0.3266,0.3281,0.3248,0.3254,0.3374,0.3382,0.3446,0.3452,0.3448,0.345,0.3662,0.3663,0.3776,0,0,0,0.3187,0.3187,0.3206,0.3204,0.3279,0.3323,0.3262,0.3373,0.3387,0.3451,0.3448,0.3452,0.3661,0.3663,0.3771,0.3844,0,0,0,0.3173,0.3185,0.3197,0.3204,0.3241,0.3321,0.3334,0.3376,0.3392,0.3445,0.3452,0.366,0.3662,0.3766,0.3835,0.3933,0,0,0,0.3161,0.3182,0.3198,0.3236,0.3241,0.3319,0.3333,0.3407,0.3457,0.3449,0.3661,0.3663,0.3764,0.3829,0.3927,0.3715,0.3727,0,0,0.3175,0.3184,0.3207,0.3223,0.3295,0.3307,0.3421,0.3494,0.3514,0.3622,0.3627,0.3773,0.3834,0.3932,0.386,0.3867,0,0,0,0.3203,0.3219,0.3255,0.3293,0.3352,0.3459,0.3501,0.3564,0.3691,0.3557,0.3792,0.3828,0.3886,0.3745,0.3752,0.3675,0.3675,0.3675,0.3674,0.3187,0.322,0.3279,0.3346,0.342,0.3559,0.368,0.3773,0.3763,0.385,0.3934,0.4107,0.3957,0.396,0.3935,0.3936,0.3936,0.3937,0.3937,0.3188,0.3213,0.3297,0.3368,0.3501,0.3616,0.385,0.3916,0.4132,0.4063,0.4112,0.3887,0.3973,0.3946,0.3945,0.3943,0.3942,0.3942,0.3941,0.316,0.3178,0.324,0.3345,0.3517,0.3696,0.3917,0.4109,0.4238,0.4349,0.418,0.4174,0.4182,0.4366,0.4367,0.4368,0.4368,0.4369,0.4369,0.3088,0.3156,0.3198,0.3347,0.3441,0.3651,0.3981,0.4124,0.4274,0.4315,0.4312,0.4252,0.4238,0.4208,0.4381,0.4379,0.4378,0.4377,0.4376,0.3052,0.3084,0.3133,0.3203,0.3384,0.3466,0.3789,0.3979,0.4189,0.4204,0.4285,0.4283,0.4232,0.4221,0.4191,0.4351,0.4351,0.4351,0.4351,0.301,0.3033,0.3057,0.3112,0.3215,0.3365,0.337,0.3528,0.3829,0.3927,0.3946,0.3756,0.3767,0.368,0.3681,0.3636,0.3652,0.365,0.3649,0.2994,0.2998,0.2995,0.303,0.3104,0.3176,0.3035,0.2966,0.325,0.362,0.3807,0.4307,0.4069,0.4071,0.3963,0.3956,0.3893,0,0]},{"header":{"parameterUnit":"m.s-1","parameterCategory":2,"la1":30.2992,"la2":30.254,"lo1":-89.0895,"lo2":-89.0443,"dy":0.0025,"dx":0.0025,"nx":19,"ny":19,"refTime":"2026-04-21T09:00:00:Z","depth":"2","parameterNumber":3,"parameterNumberName":"V-component_of_CURRENTS"},"data":[0,0,0,0.0212,0.0212,0.0169,0.0169,0.0106,0.0105,0,0,0,0,0,0,0,0,0,0,0,0.0225,0.0225,0.0212,0.0212,0.0169,0.0169,0.0106,0.0105,0,0,0,0,0,0,0,0,0,0,0,0.0225,0.0225,0.0225,0.0212,0.017,0.0169,0.0106,0.0137,0,0,0,0,0,0,0,0,0,0,0.0178,0.0194,0.0225,0.0225,0.0212,0.017,0.0169,0.0139,0.0135,0.0127,0,0.0127,0,0.0121,0.0102,0.0102,0,0,0,0.0199,0.0197,0.0191,0.0225,0.0211,0.017,0.0185,0.0137,0.0133,0.0122,0.0126,0.0124,0.012,0.0102,0.0102,0.0138,0.0139,0,0,0.0202,0.021,0.0193,0.0188,0.021,0.0186,0.0184,0.0134,0.0131,0.0126,0.0123,0.0119,0.0102,0.0101,0.0137,0.0138,0,0,0,0.0217,0.0211,0.0206,0.0191,0.0187,0.0186,0.0183,0.0133,0.0133,0.0122,0.0118,0.0101,0.0101,0.0136,0.0138,0.0267,0,0,0,0.0218,0.0221,0.0207,0.021,0.0189,0.0161,0.0182,0.0136,0.0131,0.0119,0.0101,0.01,0.0135,0.0137,0.0262,0.0381,0,0,0,0.0226,0.0222,0.0221,0.0211,0.0199,0.0162,0.0158,0.0135,0.0129,0.0102,0.01,0.0135,0.0137,0.0257,0.037,0.0451,0,0,0,0.0229,0.0256,0.0221,0.0256,0.02,0.0237,0.0158,0.0165,0.0152,0.0101,0.0136,0.0137,0.0256,0.0364,0.0445,0.0488,0.0522,0,0,0.0272,0.0261,0.0286,0.0255,0.0316,0.0241,0.0306,0.0244,0.0174,0.0147,0.0147,0.0264,0.0369,0.045,0.0592,0.0623,0,0,0,0.0307,0.033,0.034,0.0365,0.0367,0.0394,0.0332,0.0311,0.0282,0.0175,0.0264,0.0328,0.0374,0.0386,0.041,0.0146,0.0146,0.0146,0.0145,0.0378,0.0394,0.046,0.0485,0.0507,0.0501,0.0521,0.0481,0.038,0.039,0.0431,0.0588,0.0601,0.062,0.0395,0.0395,0.0396,0.0396,0.0396,0.049,0.0544,0.057,0.0638,0.0661,0.0711,0.0713,0.0661,0.069,0.0569,0.0604,0.0521,0.0655,0.0407,0.0405,0.0403,0.0402,0.0401,0.0401,0.0553,0.0589,0.0626,0.0745,0.0847,0.0866,0.1013,0.0953,0.085,0.0892,0.0859,0.0856,0.0692,0.0879,0.088,0.0881,0.0882,0.0883,0.0883,0.0608,0.0656,0.0755,0.0872,0.0974,0.1118,0.1204,0.124,0.1175,0.1059,0.1057,0.0752,0.0736,0.0721,0.0897,0.0894,0.0893,0.0891,0.089,0.0705,0.0719,0.0881,0.0986,0.1244,0.1483,0.1523,0.1575,0.1542,0.1505,0.1135,0.1125,0.1097,0.1075,0.1067,0.1323,0.1323,0.1323,0.1323,0.0766,0.0785,0.1014,0.1212,0.1468,0.1659,0.1907,0.1835,0.1607,0.1412,0.1408,0.1286,0.1267,0.124,0.1213,0.1204,0.1497,0.1497,0.1497,0.0851,0.0908,0.1086,0.1274,0.1575,0.1869,0.2088,0.1991,0.1618,0.15,0.1403,0.1342,0.1143,0.1121,0.1053,0.1022,0.0995,0,0]}],[{"header":{"parameterUnit":"m.s-1","parameterCategory":2,"la1":30.2992,"la2":30.254,"lo1":-89.0895,"lo2":-89.0443,"dy":0.0025,"dx":0.0025,"nx":19,"ny":19,"refTime":"2026-04-21T09:00:00:Z","depth":"4","parameterNumber":2,"parameterNumberName":"U-component_of_CURRENTS"},"data":[0,0,0,0.2102,0.2106,0.2282,0.2282,0.2412,0.2413,0,0,0,0,0,0,0,0,0,0,0,0.2052,0.2053,0.2102,0.2106,0.2281,0.2282,0.2411,0.2413,0,0,0,0,0,0,0,0,0,0,0,0.2051,0.2053,0.2055,0.2107,0.2281,0.2282,0.2411,0.2301,0,0,0,0,0,0,0,0,0,0,0.2143,0.2115,0.2052,0.2055,0.2108,0.2281,0.2282,0.2297,0.2308,0.2307,0,0.2354,0,0.2383,0.2419,0.242,0,0,0,0.2102,0.2106,0.215,0.2055,0.211,0.2281,0.2201,0.2304,0.2316,0.2321,0.2356,0.2361,0.2385,0.242,0.2421,0.2552,0.2553,0,0,0.2092,0.2082,0.2141,0.2158,0.218,0.2196,0.2207,0.2313,0.2336,0.2357,0.2365,0.2387,0.2421,0.2422,0.2552,0.2553,0,0,0,0.2068,0.2075,0.2118,0.2152,0.219,0.2201,0.2214,0.2331,0.2346,0.2366,0.2389,0.2421,0.2423,0.2551,0.2552,0.2609,0,0,0,0.2061,0.2061,0.2114,0.2109,0.2189,0.2277,0.223,0.2339,0.2352,0.2388,0.2421,0.2424,0.255,0.2552,0.2606,0.2632,0,0,0,0.2039,0.2058,0.2085,0.2108,0.2184,0.2276,0.2298,0.2343,0.2365,0.242,0.2424,0.255,0.2551,0.2603,0.2627,0.2741,0,0,0,0.201,0.2041,0.2086,0.2124,0.2183,0.2263,0.2297,0.2383,0.2435,0.2422,0.255,0.2552,0.2603,0.2625,0.2736,0.2375,0,0,0,0.2016,0.2042,0.2057,0.21,0.216,0.2237,0.2324,0.2421,0.2455,0.2506,0.251,0.2607,0.2627,0.274,0.2472,0,0,0,0,0.2034,0.2053,0.2078,0.2133,0.2201,0.2308,0.2398,0.2452,0.2563,0.2495,0.2624,0.2635,0.2704,0.2481,0.256,0.256,0.2559,0.2559,0.2559,0.2011,0.2043,0.2074,0.214,0.2214,0.2368,0.2465,0.2562,0.258,0.2654,0.2694,0.2832,0.2596,0.2706,0.2707,0.2707,0.2707,0.2707,0.2707,0.1992,0.1986,0.2074,0.2125,0.2249,0.2357,0.2547,0.2628,0.2793,0.2756,0.2823,0.2568,0.2714,0.2712,0.2711,0.2711,0.271,0.271,0.271,0.1937,0.1933,0.2002,0.2098,0.2226,0.2394,0.2557,0.2734,0.2858,0.2936,0.2757,0.2901,0.2886,0.3004,0.3005,0.3005,0.3006,0.3006,0.3007,0.1834,0.1894,0.1944,0.2067,0.2141,0.2312,0.2603,0.272,0.2909,0.2798,0.299,0.2934,0.2924,0.2905,0.3016,0.3015,0.3013,0.3013,0.3012,0.1722,0.1786,0.1837,0.1907,0.205,0.2134,0.2458,0.2622,0.2745,0.2741,0.2732,0.2743,0.2703,0.2701,0.2671,0.2718,0.2714,0.271,0,0.1638,0.1673,0.1709,0.1758,0.1821,0.2001,0.2088,0.2276,0.2464,0.2375,0.2727,0.2708,0.2715,0.266,0.2652,0.2609,0,0,0,0.1567,0.1589,0.1562,0.1623,0.1665,0.1828,0.2085,0.2088,0.2429,0.2446,0.2605,0.2632,0.2829,0.3045,0.3014,0.3002,0.2971,0,0]},{"header":{"parameterUnit":"m.s-1","parameterCategory":2,"la1":30.2992,"la2":30.254,"lo1":-89.0895,"lo2":-89.0443,"dy":0.0025,"dx":0.0025,"nx":19,"ny":19,"refTime":"2026-04-21T09:00:00:Z","depth":"4","parameterNumber":3,"parameterNumberName":"V-component_of_CURRENTS"},"data":[0,0,0,0.0203,0.0203,0.0185,0.0185,0.0176,0.0176,0,0,0,0,0,0,0,0,0,0,0,0.021,0.021,0.0203,0.0203,0.0185,0.0185,0.0176,0.0176,0,0,0,0,0,0,0,0,0,0,0,0.021,0.021,0.021,0.0203,0.0185,0.0185,0.0176,0.0184,0,0,0,0,0,0,0,0,0,0,0.0199,0.0203,0.021,0.021,0.0203,0.0185,0.0185,0.0184,0.0184,0.019,0,0.0193,0,0.0188,0.0177,0.0177,0,0,0,0.0196,0.0204,0.0203,0.021,0.0203,0.0186,0.0191,0.0184,0.0183,0.0189,0.0192,0.0192,0.0188,0.0177,0.0177,0.0242,0.0243,0,0,0.0197,0.0202,0.0204,0.0203,0.0205,0.0192,0.0191,0.0183,0.0184,0.0192,0.0192,0.0187,0.0177,0.0177,0.0241,0.0242,0,0,0,0.0204,0.0202,0.0201,0.0203,0.0201,0.0192,0.019,0.0184,0.0185,0.0191,0.0187,0.0177,0.0177,0.024,0.0242,0.0334,0,0,0,0.0204,0.0207,0.0201,0.0203,0.0201,0.019,0.0191,0.0185,0.0184,0.0187,0.0177,0.0177,0.024,0.0241,0.033,0.0381,0,0,0,0.0209,0.0207,0.0208,0.0204,0.02,0.019,0.019,0.0185,0.0182,0.0177,0.0177,0.0239,0.0241,0.0326,0.0374,0.0391,0,0,0,0.021,0.0233,0.0209,0.0243,0.02,0.0247,0.019,0.0214,0.0218,0.0177,0.024,0.0241,0.0325,0.037,0.0388,0.0397,0,0,0,0.0245,0.0237,0.0262,0.024,0.0303,0.0248,0.0312,0.0284,0.0242,0.024,0.0241,0.0331,0.0373,0.0391,0.0491,0,0,0,0,0.0278,0.0299,0.0313,0.0342,0.0356,0.0379,0.035,0.0336,0.033,0.0251,0.0338,0.0362,0.0369,0.0365,0.0249,0.0249,0.0249,0.0249,0.0249,0.033,0.0351,0.0411,0.0441,0.0471,0.0477,0.0485,0.046,0.0411,0.0422,0.0442,0.0528,0.0529,0.0441,0.0441,0.0442,0.0442,0.0442,0.0442,0.0413,0.0456,0.0494,0.0559,0.0585,0.064,0.063,0.0595,0.0588,0.0535,0.0536,0.047,0.0452,0.045,0.0449,0.0448,0.0447,0.0446,0.0446,0.0453,0.0479,0.0524,0.0631,0.0723,0.075,0.0826,0.0778,0.0688,0.0696,0.0654,0.0585,0.0569,0.0686,0.0686,0.0686,0.0687,0.0687,0.0687,0.0473,0.0523,0.0605,0.0713,0.0802,0.0904,0.0942,0.0925,0.0834,0.0771,0.072,0.0609,0.0601,0.0583,0.0692,0.0691,0.0691,0.069,0.069,0.052,0.0543,0.067,0.076,0.0962,0.1038,0.1081,0.1019,0.099,0.0901,0.0789,0.0783,0.0743,0.0732,0.0715,0.0869,0.0869,0.087,0,0.0544,0.0565,0.074,0.0893,0.1053,0.1122,0.1145,0.1109,0.096,0.095,0.0943,0.082,0.0813,0.077,0.076,0.0744,0,0,0,0.0583,0.0633,0.0757,0.0912,0.1099,0.1133,0.1154,0.1118,0.0997,0.0951,0.0883,0.0879,0.0801,0.0707,0.063,0.0621,0.0586,0,0]}]]